Tracking 31029 objects as of 15-Jul-2025
HD Live streaming from Space Station
objects crossing your sky now

BEIDOU G7

Track BEIDOU G7 now!
BEIDOU G7 is classified as:


NORAD ID: 41586
Int'l Code: 2016-037A
Perigee: 35,756.0 km
Apogee: 35,835.2 km
Inclination: 1.8 °
Period: 1,436.2 minutes
Semi major axis: 42166 km
RCS: Unknown
Launch date: June 12, 2016
Source: People's Republic of China (PRC)
Launch site: Xichang Space Center, China (XSC)
Your satellite tracking list
Your tracking list is empty




NASA's NSSDC Master Catalog

Two Line Element Set (TLE):
1 41586U 16037A   25196.60612924 -.00000346  00000-0  00000-0 0  9998
2 41586   1.8309  69.2276 0009393  13.8952 179.2124  1.00265310  3514
Source of the keplerian elements: AFSPC